PBO Station Position Time Series. Reference Frame : NAM14
Format Version,1.1.1
4-character ID,AC80
Station name,YentnaRvr2AK2010
Begin Date, 2010-08-05
End Date, 2023-06-26
Release Date, 2023-06-27
Reference position, 62.3940778211 North Latitude, -151.7650415189 East Longitude, 1114.49448 meters elevation,
Date, North (mm), East (mm), Vertical (mm), North Std. Deviation (mm), East Std. Deviation (mm),              Vertical Std. Deviation (mm), Quality,
2010-08-05,0.00, 0.00, 0.00, 2.31, 1.53, 7.36, repro,
2010-08-06,-0.36, -0.75, 6.75, 2.31, 1.55, 7.43, repro,
2010-08-07,-1.02, -0.84, 3.83, 2.37, 1.58, 7.56, repro,
2010-08-08,0.52, -0.35, 2.26, 2.31, 1.54, 7.45, repro,
2010-08-09,-0.63, 0.85, -0.16, 2.30, 1.53, 7.37, repro,
2010-08-10,0.67, 0.20, 5.71, 2.31, 1.54, 7.40, repro,
2010-08-11,0.55, -0.52, -3.83, 2.30, 1.54, 7.37, repro,
2010-08-12,1.14, 0.42, -9.36, 2.28, 1.54, 7.34, repro,
2010-08-13,0.64, -0.32, -6.51, 2.31, 1.54, 7.45, repro,
2010-08-14,1.39, 0.06, -7.56, 2.30, 1.54, 7.38, repro,
2010-08-15,-1.17, 0.81, 1.43, 2.31, 1.54, 7.42, repro,
2010-08-16,0.54, 0.11, -3.25, 2.31, 1.54, 7.40, repro,
2010-08-17,-1.19, -0.98, 4.72, 2.28, 1.54, 7.32, repro,
2010-08-18,-1.31, -0.39, 2.01, 2.32, 1.54, 7.46, repro,
2010-08-19,-0.00, -0.84, 0.86, 2.38, 1.57, 7.55, repro,
2010-08-20,-1.65, -0.44, 4.38, 2.31, 1.54, 7.44, repro,
2010-08-21,0.13, -0.98, 3.92, 2.32, 1.53, 7.40, repro,
2010-08-22,-1.30, 0.24, 10.64, 2.31, 1.55, 7.45, repro,
2010-08-23,-2.20, -0.80, 3.70, 2.31, 1.54, 7.40, repro,
2010-08-24,-0.58, -0.55, 4.49, 2.39, 1.61, 7.61, repro,
2010-08-25,-1.23, -0.24, 4.80, 2.32, 1.55, 7.40, repro,
2010-08-26,-1.35, -1.43, 3.08, 2.36, 1.55, 7.46, repro,
2010-08-27,-2.98, -0.22, 2.25, 2.42, 1.58, 7.62, repro,
2010-08-28,-1.30, -0.32, -4.93, 2.27, 1.52, 7.23, repro,
2010-08-29,-1.81, -0.08, 6.99, 2.29, 1.52, 7.31, repro,
2010-08-30,-1.72, -0.10, 3.41, 2.32, 1.55, 7.40, repro,
2010-08-31,-1.00, 0.61, 13.50, 2.31, 1.53, 7.34, repro,
2010-09-01,-2.75, 0.69, 4.05, 2.27, 1.52, 7.26, repro,
2010-09-02,-1.13, -0.01, 5.60, 2.27, 1.52, 7.27, repro,
2010-09-03,-2.38, -1.00, 5.96, 2.28, 1.52, 7.26, repro,
2010-09-04,1.34, 0.57, 6.67, 2.29, 1.53, 7.35, repro,
2010-09-05,0.20, -0.57, 0.79, 2.28, 1.52, 7.25, repro,
2010-09-06,-1.47, 0.35, 3.57, 2.27, 1.52, 7.24, repro,
2010-09-07,1.26, 0.70, 2.62, 2.27, 1.53, 7.28, repro,
2010-09-08,1.13, 0.75, 2.52, 2.27, 1.52, 7.21, repro,
2010-09-09,0.08, -0.82, 4.17, 2.28, 1.52, 7.23, repro,
2010-09-10,-0.57, -0.04, 6.87, 2.29, 1.52, 7.26, repro,
2010-09-11,-0.86, -0.28, 1.19, 2.32, 1.55, 7.40, repro,
2010-09-12,-1.00, -0.65, -0.52, 2.27, 1.52, 7.20, repro,
2010-09-13,-2.00, -0.00, -0.03, 2.27, 1.54, 7.30, repro,
2010-09-14,0.50, -0.62, -5.43, 2.34, 1.55, 7.38, repro,
2010-09-15,0.03, -0.94, 5.26, 2.28, 1.52, 7.22, repro,
2010-09-16,-0.67, -0.38, 7.16, 2.27, 1.52, 7.21, repro,
2010-09-17,-0.91, -0.57, -4.08, 2.28, 1.53, 7.28, repro,
2010-09-18,-0.90, 0.22, 5.23, 2.28, 1.52, 7.26, repro,
2010-09-19,-1.55, 0.17, -1.89, 2.28, 1.52, 7.22, repro,
2010-09-20,-0.89, -0.00, 6.24, 2.27, 1.52, 7.20, repro,
2010-09-21,-1.11, 0.04, 4.74, 2.32, 1.54, 7.25, repro,
2010-09-22,-0.93, 0.43, 7.23, 2.33, 1.54, 7.30, repro,
2010-09-23,-1.57, -0.04, 12.67, 2.29, 1.54, 7.36, repro,
2010-09-24,-0.92, -0.62, 11.59, 2.30, 1.53, 7.29, repro,
2010-09-25,-1.24, 0.01, 14.07, 2.29, 1.54, 7.31, repro,
2010-09-26,-2.23, -0.49, 8.73, 2.26, 1.51, 7.15, repro,
2010-09-27,-0.37, -0.26, 6.92, 2.33, 1.55, 7.31, repro,
2010-09-28,-1.90, 2.03, 14.51, 2.36, 1.57, 7.39, repro,
2010-09-29,-2.26, 0.04, 4.64, 2.25, 1.52, 7.22, repro,
2010-09-30,0.09, 0.76, 10.58, 2.28, 1.53, 7.24, repro,
2010-10-01,-0.12, -0.42, 2.90, 2.32, 1.54, 7.33, repro,
2010-10-02,-2.09, -0.48, 10.86, 2.26, 1.52, 7.16, repro,
2010-10-03,-0.90, 0.44, 16.12, 2.30, 1.54, 7.31, repro,
2010-10-04,-0.38, 0.59, 10.31, 2.31, 1.53, 7.31, repro,
2010-10-05,-1.75, 0.47, 8.37, 2.26, 1.52, 7.21, repro,
2010-10-06,-2.37, -0.57, 13.69, 2.28, 1.53, 7.23, repro,
2010-10-07,-2.03, 0.66, 2.38, 2.26, 1.51, 7.15, repro,
2010-10-08,-2.65, 0.30, 2.12, 2.27, 1.51, 7.14, repro,
2010-10-09,-1.77, 0.26, 5.12, 2.32, 1.53, 7.28, repro,
2010-10-10,-1.40, 1.08, 11.12, 2.25, 1.51, 7.18, repro,
2010-10-11,-0.52, 1.29, 7.23, 2.35, 1.56, 7.45, repro,
2010-10-12,-1.96, 1.13, 3.95, 2.35, 1.54, 7.28, repro,
2010-10-13,-0.99, 0.22, 7.83, 2.25, 1.51, 7.12, repro,
2010-10-14,-1.64, 0.75, 5.33, 2.31, 1.55, 7.27, repro,
2010-10-15,-0.12, 0.89, 6.47, 2.31, 1.53, 7.19, repro,
2010-10-16,-0.94, 1.60, 6.45, 2.25, 1.51, 7.17, repro,
2010-10-17,-1.68, 1.28, 7.83, 2.34, 1.56, 7.37, repro,
2010-10-18,-1.33, 0.63, 11.91, 2.28, 1.54, 7.38, repro,
2010-10-19,-0.47, 1.19, 13.95, 2.26, 1.53, 7.28, repro,
2010-10-20,-0.14, 1.34, 2.86, 2.24, 1.51, 7.08, repro,
2010-10-21,-1.21, 1.01, 3.98, 2.27, 1.52, 7.29, repro,
2010-10-22,-3.93, 1.62, 1.20, 2.25, 1.50, 7.16, repro,
2010-10-23,-2.56, 0.44, 3.02, 2.34, 1.56, 7.39, repro,
2010-10-24,-2.12, 1.32, 7.65, 2.26, 1.52, 7.18, repro,
2010-10-25,-1.52, 1.75, 12.68, 2.25, 1.53, 7.28, repro,
2010-10-26,-2.62, 1.23, 5.86, 2.23, 1.50, 7.04, repro,
2010-10-27,-3.37, 0.88, 1.91, 2.23, 1.50, 7.11, repro,
2010-10-28,-0.47, 1.72, 7.96, 2.28, 1.54, 7.45, repro,
2010-10-29,-0.60, 1.92, 15.10, 2.25, 1.52, 7.24, repro,
2010-10-30,-1.59, -0.04, 17.28, 2.23, 1.50, 7.08, repro,
2010-10-31,-2.43, 0.65, 14.43, 2.39, 1.62, 7.58, repro,
2010-11-01,-1.25, 0.66, 20.48, 2.31, 1.55, 7.40, repro,
2010-11-02,-3.20, 1.14, 8.24, 2.25, 1.51, 7.17, repro,
2010-11-03,-0.98, 1.22, 2.92, 2.24, 1.51, 7.15, repro,
2010-11-04,-1.36, -0.12, 10.13, 2.25, 1.51, 7.13, repro,
2010-11-05,-0.60, 1.56, 14.57, 2.31, 1.58, 7.53, repro,
2010-11-06,-1.00, 1.77, 11.46, 2.29, 1.55, 7.27, repro,
2010-11-07,-0.84, 2.18, -0.90, 2.23, 1.50, 7.13, repro,
2010-11-08,-1.82, 0.83, -2.84, 2.28, 1.54, 7.22, repro,
2010-11-09,-1.39, 0.55, -5.35, 2.26, 1.54, 7.36, repro,
2010-11-10,-1.64, 1.04, -1.30, 2.25, 1.51, 7.13, repro,
2010-11-11,-3.13, -0.03, 2.59, 2.27, 1.55, 7.29, repro,
2010-11-12,-2.03, 1.31, 5.34, 2.24, 1.52, 7.23, repro,
2010-11-13,-1.57, 0.12, 5.24, 2.34, 1.57, 7.48, repro,
2010-11-14,-1.68, 0.09, 1.95, 2.32, 1.58, 7.50, repro,
2010-11-15,-0.38, 1.51, -4.01, 2.29, 1.56, 7.30, repro,
2010-11-16,-1.56, -0.85, -9.10, 2.36, 1.58, 7.57, repro,
2010-11-17,-2.06, -0.38, -16.04, 2.32, 1.54, 7.45, repro,
2010-11-18,-2.85, 0.57, -2.18, 2.26, 1.52, 7.31, repro,
2010-11-19,-1.11, 0.38, -15.61, 2.31, 1.56, 7.35, repro,
2010-11-20,-2.20, 0.42, -9.44, 2.25, 1.53, 7.27, repro,
2010-11-21,-1.57, -0.55, -14.79, 2.36, 1.59, 7.71, repro,
2010-11-22,-0.30, 1.93, -5.03, 2.36, 1.60, 7.72, repro,
2010-11-23,-1.18, 1.37, -0.66, 2.25, 1.52, 7.25, repro,
2010-11-24,0.31, 1.60, 5.83, 2.25, 1.52, 7.23, repro,
2010-11-25,0.58, 2.17, -0.31, 2.27, 1.54, 7.19, repro,
2010-11-26,-1.34, 1.27, 2.45, 2.26, 1.54, 7.26, repro,
2010-11-27,-0.09, 2.37, 1.91, 2.27, 1.54, 7.31, repro,
2010-11-28,-1.51, 0.57, 2.35, 2.32, 1.57, 7.41, repro,
2010-11-29,-1.17, 0.34, -1.66, 2.29, 1.53, 7.34, repro,
2010-11-30,-2.64, 0.68, 1.23, 2.25, 1.51, 7.24, repro,
2010-12-01,-2.63, 0.75, -2.00, 2.25, 1.51, 7.23, repro,
2010-12-02,-1.67, -0.57, -6.12, 2.27, 1.53, 7.30, repro,
2010-12-03,-1.47, 0.32, -4.59, 2.29, 1.55, 7.34, repro,
2010-12-04,-2.01, -0.26, -0.70, 2.29, 1.53, 7.30, repro,
2010-12-05,-0.26, 0.75, -4.61, 2.23, 1.51, 7.17, repro,
2010-12-06,-1.60, 0.86, -9.11, 2.23, 1.50, 7.15, repro,
2010-12-07,-1.99, 0.36, -8.63, 2.24, 1.51, 7.18, repro,
2010-12-08,-1.70, 0.07, -4.87, 2.27, 1.54, 7.33, repro,
2010-12-09,-2.44, 0.25, -2.34, 2.28, 1.54, 7.34, repro,
2010-12-10,-1.07, 0.14, -1.25, 2.30, 1.56, 7.48, repro,
2010-12-11,-2.65, 0.37, -1.30, 2.32, 1.56, 7.42, repro,
2010-12-12,-1.65, 0.33, 0.04, 2.27, 1.55, 7.31, repro,
2010-12-13,-1.74, 0.12, 1.56, 2.27, 1.55, 7.30, repro,
2010-12-14,-0.90, 1.48, 8.71, 2.28, 1.57, 7.48, repro,
2010-12-15,-2.52, -0.31, -2.44, 2.29, 1.55, 7.40, repro,
2010-12-16,-0.63, 0.24, -12.16, 2.27, 1.53, 7.28, repro,
2010-12-17,-0.16, 1.52, -11.88, 2.34, 1.58, 7.50, repro,
2010-12-18,-0.40, 0.72, -12.34, 2.29, 1.55, 7.34, repro,
2010-12-19,-1.05, 1.45, -7.89, 2.26, 1.52, 7.30, repro,
2010-12-20,-2.42, -0.62, 2.15, 2.27, 1.52, 7.32, repro,
2010-12-21,-0.16, 0.53, -3.04, 2.29, 1.54, 7.33, repro,
2010-12-22,0.02, -0.73, -4.89, 2.28, 1.53, 7.25, repro,
2010-12-23,-0.27, 0.42, -7.32, 2.32, 1.55, 7.38, repro,
2010-12-24,-0.48, -0.62, -8.96, 2.27, 1.54, 7.31, repro,
2010-12-25,0.25, -0.47, -1.54, 2.32, 1.54, 7.39, repro,
2010-12-26,-1.09, 1.18, 1.55, 2.31, 1.54, 7.38, repro,
2010-12-27,-1.65, -1.01, 2.53, 2.23, 1.52, 7.22, repro,
2010-12-28,-0.52, -0.54, 7.61, 2.31, 1.56, 7.42, repro,
2010-12-29,-1.84, 1.00, 0.67, 2.44, 1.62, 7.71, repro,
2010-12-30,-2.05, 1.27, -1.64, 2.39, 1.57, 7.58, repro,
2010-12-31,-0.21, 0.50, 6.41, 2.25, 1.51, 7.24, repro,
2011-01-01,-0.51, 1.68, 5.45, 2.30, 1.54, 7.37, repro,
2011-01-02,-1.31, 2.13, 13.40, 2.36, 1.57, 7.45, repro,
2011-01-03,-0.76, 1.99, 13.52, 2.35, 1.58, 7.45, repro,
2011-01-04,-1.70, 2.96, 20.83, 2.35, 1.60, 7.49, repro,
2011-01-05,-0.65, 2.40, 9.12, 2.30, 1.54, 7.38, repro,
2011-01-06,-2.79, 3.24, 4.10, 2.30, 1.54, 7.37, repro,
2011-01-07,-2.10, 1.14, -8.50, 2.33, 1.54, 7.46, repro,
2011-01-08,-0.68, 2.08, -18.28, 2.32, 1.54, 7.40, repro,
2011-01-09,-1.96, -0.49, -18.95, 2.27, 1.53, 7.26, repro,
2011-01-10,-1.88, 0.25, -16.86, 2.31, 1.55, 7.45, repro,
2011-01-11,-1.55, 0.76, -13.32, 2.38, 1.56, 7.62, repro,
2011-01-12,-0.98, -1.20, -17.44, 2.25, 1.51, 7.29, repro,
2011-01-13,-1.04, -0.99, -15.89, 2.39, 1.59, 7.54, repro,
2011-01-14,-2.25, 0.23, -7.91, 2.26, 1.51, 7.29, repro,
2011-01-15,-2.72, -1.81, -9.56, 2.35, 1.56, 7.43, repro,
2011-01-16,-2.39, -0.15, -1.97, 2.27, 1.52, 7.32, repro,
2011-01-17,-1.78, -0.32, -1.32, 2.30, 1.53, 7.36, repro,
2011-01-18,-0.50, 0.70, -7.07, 2.35, 1.58, 7.49, repro,
2011-01-19,-1.84, -0.12, -2.61, 2.33, 1.56, 7.40, repro,
2011-01-20,-2.17, -0.29, -0.69, 2.26, 1.51, 7.29, repro,
2011-01-21,-2.43, 0.32, -0.61, 2.30, 1.53, 7.37, repro,
2011-01-22,-2.62, 0.37, 4.04, 2.29, 1.53, 7.34, repro,
2011-01-23,-1.66, 0.45, 5.39, 2.26, 1.53, 7.38, repro,
2011-01-24,-3.05, 0.54, 15.69, 2.29, 1.53, 7.31, repro,
2011-01-25,-3.45, 0.59, 7.38, 2.25, 1.51, 7.23, repro,
2011-01-26,-2.90, 0.67, 1.90, 2.42, 1.61, 7.90, repro,
2011-01-27,-1.18, 1.44, -6.67, 2.26, 1.51, 7.29, repro,
2011-01-28,-0.47, 2.56, -12.63, 2.25, 1.50, 7.29, repro,
2011-01-29,-2.54, 1.34, -14.14, 2.30, 1.53, 7.38, repro,
2011-01-30,-2.71, 0.80, -11.02, 2.29, 1.54, 7.35, repro,
2011-01-31,-2.05, 0.93, -7.00, 2.25, 1.53, 7.31, repro,
2011-02-01,-2.19, 1.09, -0.56, 2.25, 1.51, 7.27, repro,
2011-02-02,-4.02, 0.53, -2.13, 2.24, 1.50, 7.25, repro,
2011-02-03,-4.32, 0.89, 2.75, 2.26, 1.52, 7.37, repro,
2011-02-04,-4.90, 1.69, -2.18, 2.38, 1.59, 7.64, repro,
2011-02-05,-5.85, 0.91, -15.43, 2.29, 1.56, 7.38, repro,
2011-02-06,-4.01, 1.66, -11.55, 2.28, 1.54, 7.40, repro,
2011-02-07,-3.09, 1.87, -15.32, 2.31, 1.54, 7.34, repro,
2011-02-08,-4.15, 1.28, -10.18, 2.31, 1.55, 7.50, repro,
2011-02-09,-4.23, 1.13, -7.92, 2.28, 1.54, 7.36, repro,
2011-02-10,-4.35, -0.09, -9.73, 2.24, 1.53, 7.29, repro,
2011-02-11,-4.29, 0.03, -4.25, 2.25, 1.54, 7.31, repro,
2011-02-12,-4.69, 0.31, 1.54, 2.34, 1.57, 7.51, repro,
2011-02-13,-3.73, 0.61, -1.91, 2.26, 1.53, 7.40, repro,
2011-02-14,-4.25, 1.55, -16.65, 2.25, 1.53, 7.40, repro,
2011-02-15,-3.26, -0.38, -8.75, 2.29, 1.57, 7.52, repro,
2011-02-16,-4.08, 0.53, -7.85, 2.31, 1.56, 7.56, repro,
2011-02-17,-4.60, 1.78, -12.65, 2.26, 1.53, 7.35, repro,
2011-02-18,-4.36, 1.51, -5.45, 2.33, 1.58, 7.61, repro,
2011-02-19,-3.41, 1.04, -9.07, 2.26, 1.53, 7.42, repro,
2011-02-20,-4.68, 0.22, -16.01, 2.28, 1.55, 7.50, repro,
2011-02-21,-6.41, 0.52, -4.88, 2.25, 1.54, 7.37, repro,
2011-02-22,-5.51, -1.66, -15.70, 2.32, 1.59, 7.67, repro,
2011-02-23,-3.55, 1.16, -29.61, 2.31, 1.53, 7.49, repro,
2011-02-24,-3.97, 0.33, -25.70, 2.28, 1.52, 7.42, repro,
2011-02-25,-3.55, 1.09, -24.04, 2.25, 1.53, 7.38, repro,
2011-02-26,0.20, 0.45, -13.52, 2.31, 1.55, 7.44, repro,
2011-02-27,-2.78, 0.95, -11.44, 2.26, 1.53, 7.38, repro,
2011-02-28,-1.21, -0.06, -23.52, 2.23, 1.52, 7.27, repro,
2011-03-01,-2.33, 1.43, -16.96, 2.47, 1.64, 7.88, repro,
2011-03-02,-3.45, 1.02, -11.43, 2.28, 1.56, 7.40, repro,
2011-03-03,-3.93, 1.92, -16.32, 2.26, 1.52, 7.35, repro,
2011-03-04,-3.29, 1.40, -15.49, 2.42, 1.60, 7.55, repro,
2011-03-05,-3.46, 2.02, -11.22, 2.25, 1.52, 7.32, repro,
2011-03-06,-3.50, 0.33, -15.85, 2.24, 1.52, 7.33, repro,
2011-03-07,-4.13, 2.24, -12.51, 2.26, 1.54, 7.36, repro,
2011-03-08,-2.79, 1.96, -9.68, 2.26, 1.53, 7.34, repro,
2011-03-09,-3.09, 2.41, -13.76, 2.25, 1.53, 7.34, repro,
2011-03-10,-4.46, 1.76, -13.77, 2.36, 1.64, 7.67, repro,
2011-03-11,-3.58, 2.02, -10.01, 2.35, 1.60, 7.76, repro,
2011-03-12,-3.95, 0.97, -8.61, 2.28, 1.53, 7.41, repro,
2011-03-13,-5.00, 1.80, -6.20, 2.26, 1.54, 7.36, repro,
2011-03-14,-3.86, 1.15, -0.03, 2.28, 1.56, 7.51, repro,
2011-03-15,-5.34, 1.08, -1.23, 2.32, 1.56, 7.48, repro,
2011-03-16,-2.79, 2.42, 3.98, 2.28, 1.57, 7.56, repro,
2011-03-17,-4.75, 1.50, -11.23, 2.27, 1.54, 7.46, repro,
2011-03-18,-3.08, 1.82, -9.04, 2.26, 1.54, 7.36, repro,
2011-03-19,-3.43, 1.15, -11.69, 2.28, 1.56, 7.44, repro,
2011-03-20,-3.05, 1.02, -9.67, 2.25, 1.54, 7.42, repro,
2011-03-21,-3.95, 1.57, -8.73, 2.32, 1.59, 7.58, repro,
2011-03-22,-5.21, 1.91, -7.26, 2.27, 1.55, 7.40, repro,
2011-03-23,-5.46, 1.28, -8.45, 2.22, 1.51, 7.22, repro,
2011-03-24,-3.28, 0.87, -5.08, 2.23, 1.52, 7.22, repro,
2011-03-25,-4.65, 1.21, -3.65, 2.23, 1.52, 7.31, repro,
2011-03-26,-5.08, 0.74, -5.67, 2.21, 1.51, 7.23, repro,
2011-03-27,-4.18, 1.34, -7.29, 2.22, 1.50, 7.18, repro,
2011-03-28,-3.67, 2.13, -7.02, 2.23, 1.51, 7.24, repro,
2011-03-29,-5.44, 0.99, -3.16, 2.21, 1.50, 7.20, repro,
2011-03-30,-5.44, 1.10, 3.32, 2.24, 1.52, 7.29, repro,
2011-03-31,-4.11, 1.36, -2.67, 2.24, 1.51, 7.31, repro,
2011-04-01,-3.39, 1.37, -4.52, 2.23, 1.54, 7.29, repro,
2011-04-02,-4.87, 2.31, -9.84, 2.23, 1.52, 7.23, repro,
2011-04-03,-5.30, 2.91, -9.93, 2.25, 1.52, 7.31, repro,
2011-04-04,-5.06, 1.39, 4.50, 2.25, 1.53, 7.34, repro,
2011-04-05,-4.02, 1.45, -2.85, 2.28, 1.56, 7.34, repro,
2011-04-06,-6.23, 2.92, -13.51, 2.61, 1.72, 8.08, repro,
2011-04-07,-4.67, 3.29, -1.66, 2.24, 1.53, 7.32, repro,
2011-04-08,-3.26, 3.01, -8.00, 2.24, 1.52, 7.29, repro,
2011-04-09,-4.93, 2.70, -1.53, 2.23, 1.52, 7.26, repro,
2011-04-10,-6.22, 1.80, -12.64, 2.29, 1.54, 7.38, repro,
2011-04-11,-4.38, 2.30, -5.86, 2.34, 1.55, 7.47, repro,
2011-04-12,-4.01, 2.71, -14.32, 2.46, 1.62, 7.77, repro,
2011-04-13,-3.67, 2.63, -14.82, 2.25, 1.53, 7.26, repro,
2011-04-14,-4.30, 2.22, -11.66, 2.24, 1.51, 7.25, repro,
2011-04-15,-4.86, 1.99, -14.73, 2.23, 1.52, 7.28, repro,
2011-04-16,-4.18, 1.84, -19.80, 2.27, 1.55, 7.33, repro,
2011-04-17,-3.77, 2.14, -13.72, 2.22, 1.54, 7.27, repro,
2011-04-18,-2.68, 3.26, -22.11, 2.32, 1.57, 7.59, repro,
2011-04-19,-4.83, 2.49, -24.71, 2.23, 1.52, 7.25, repro,
2011-04-20,-3.54, 1.39, -18.27, 2.27, 1.56, 7.53, repro,
2011-04-21,-2.84, 2.56, -9.68, 2.26, 1.54, 7.50, repro,
2011-04-22,-3.78, 3.47, -7.24, 2.22, 1.51, 7.21, repro,
2011-04-23,-4.67, 4.92, -8.25, 2.23, 1.52, 7.29, repro,
2011-04-24,-4.02, 3.11, -4.85, 2.25, 1.54, 7.33, repro,
2011-04-25,-5.79, 2.85, -6.22, 2.26, 1.52, 7.33, repro,
2011-04-26,-5.22, 2.05, -0.87, 2.25, 1.53, 7.31, repro,
2011-04-27,-4.56, 1.66, -9.80, 2.24, 1.53, 7.29, repro,
2011-04-28,-5.38, 2.85, -12.53, 2.33, 1.57, 7.47, repro,
2011-04-29,-4.99, 2.92, -21.68, 2.29, 1.57, 7.43, repro,
2011-04-30,-3.03, 2.09, -15.56, 2.28, 1.54, 7.38, repro,
2011-05-01,-2.93, 2.43, -21.84, 2.28, 1.57, 7.42, repro,
2011-05-02,-4.83, 2.04, -16.46, 2.29, 1.57, 7.55, repro,
2011-05-03,-5.17, 2.73, -15.21, 2.29, 1.57, 7.43, repro,
2011-05-04,-4.74, 2.57, -16.95, 2.39, 1.60, 7.58, repro,
2011-05-05,-4.63, 2.20, -14.34, 2.29, 1.57, 7.61, repro,
2011-05-06,-4.53, 2.59, -7.43, 2.26, 1.57, 7.57, repro,
2011-05-07,-4.23, 3.13, -8.50, 2.30, 1.57, 7.53, repro,
2011-05-08,-3.13, 3.37, -15.63, 2.30, 1.57, 7.52, repro,
2011-05-09,-4.14, 3.02, -14.24, 2.30, 1.57, 7.53, repro,
2011-05-10,-4.26, 1.74, -8.12, 2.34, 1.56, 7.59, repro,
2011-05-11,-3.30, 3.91, -15.58, 2.26, 1.53, 7.37, repro,
2011-05-12,-3.51, 1.64, -20.00, 2.27, 1.54, 7.43, repro,
2011-05-13,-2.64, 2.05, -18.24, 2.28, 1.55, 7.48, repro,
2011-05-14,-3.39, 1.86, -14.24, 2.30, 1.59, 7.56, repro,
2011-05-15,-4.50, 1.75, -13.70, 2.28, 1.57, 7.48, repro,
2011-05-16,-3.90, 1.88, -3.63, 2.32, 1.57, 7.47, repro,
2011-05-17,-4.49, 3.18, -9.45, 2.27, 1.57, 7.40, repro,
2011-05-18,-5.01, 2.10, -15.03, 2.29, 1.60, 7.53, repro,
2011-05-19,-2.90, 2.61, -15.97, 2.35, 1.60, 7.66, repro,
2011-05-20,-3.47, 1.05, -9.57, 2.30, 1.58, 7.51, repro,
2011-05-21,-2.47, 1.50, -11.73, 2.28, 1.55, 7.35, repro,
2011-05-22,-2.70, 0.73, -12.48, 2.30, 1.56, 7.43, repro,
2011-05-23,-2.99, 1.90, -9.01, 2.31, 1.56, 7.49, repro,
2011-05-24,-2.44, 2.31, -7.52, 2.32, 1.59, 7.56, repro,
2011-05-25,-5.60, 1.44, -16.08, 2.29, 1.57, 7.45, repro,
2011-05-26,-3.66, 1.24, -13.58, 2.27, 1.55, 7.34, repro,
2011-05-27,-1.72, 1.60, -8.39, 2.30, 1.55, 7.47, repro,
2011-05-28,-3.30, 1.60, -22.35, 2.63, 1.77, 8.27, repro,
2011-05-29,-3.17, 1.02, -10.39, 2.37, 1.61, 7.72, repro,
2011-05-30,-3.53, 1.17, -14.02, 2.28, 1.56, 7.41, repro,
2011-05-31,-4.03, -1.71, -11.46, 2.29, 1.57, 7.43, repro,
2011-06-01,-1.33, 0.37, -13.80, 2.26, 1.55, 7.32, repro,
2011-06-02,-2.56, 0.21, -4.32, 2.25, 1.55, 7.28, repro,
2011-06-03,-1.53, -0.50, -5.19, 2.26, 1.55, 7.30, repro,
2011-06-04,-1.09, 0.33, -4.33, 2.29, 1.56, 7.39, repro,
2011-06-05,-1.33, 0.83, -16.40, 2.33, 1.58, 7.42, repro,
2011-06-06,-2.59, 0.03, -18.11, 2.27, 1.57, 7.38, repro,
2011-06-07,-1.38, -0.37, -13.31, 2.28, 1.55, 7.34, repro,
2011-06-08,-2.80, -0.65, -6.71, 2.27, 1.54, 7.29, repro,
2011-06-09,-2.46, 0.19, -9.04, 2.28, 1.56, 7.40, repro,
2011-06-10,-3.64, -0.02, -8.25, 2.32, 1.61, 7.62, repro,
2011-06-11,-2.07, 0.67, -5.15, 2.26, 1.56, 7.32, repro,
2011-06-12,-3.22, 0.10, -1.49, 2.25, 1.54, 7.30, repro,
2011-06-13,-3.56, 0.57, -1.31, 2.29, 1.56, 7.39, repro,
2011-06-14,-3.62, 0.86, -6.70, 2.24, 1.54, 7.28, repro,
2011-06-15,-1.09, 0.16, -4.87, 2.27, 1.55, 7.39, repro,
2011-06-16,-3.60, 0.02, -13.23, 2.26, 1.56, 7.32, repro,
2011-06-17,-2.54, 0.75, -13.36, 2.27, 1.56, 7.37, repro,
2011-06-18,-3.04, -0.58, -1.78, 2.27, 1.54, 7.32, repro,
2011-06-19,-0.74, 0.25, 0.10, 2.25, 1.54, 7.24, repro,
2011-06-20,-1.22, 0.31, -10.48, 2.28, 1.55, 7.34, repro,
2011-06-21,-2.48, 0.18, -5.44, 2.28, 1.57, 7.34, repro,
2011-06-22,-2.40, -0.95, -8.21, 2.27, 1.57, 7.37, repro,
2011-06-23,-1.23, -0.41, -4.25, 2.27, 1.57, 7.36, repro,
2011-06-24,-1.49, 0.41, -7.79, 2.29, 1.55, 7.36, repro,
2011-06-25,-2.30, 0.50, 1.43, 2.26, 1.55, 7.30, repro,
2011-06-26,-2.27, 0.71, -0.77, 2.34, 1.61, 7.46, repro,
2011-06-27,-1.08, 0.57, -3.76, 2.26, 1.56, 7.32, repro,
2011-06-28,-2.74, 0.44, 2.60, 2.25, 1.56, 7.33, repro,
2011-06-29,-2.07, 0.29, 2.59, 2.25, 1.55, 7.29, repro,
2011-06-30,-2.46, 0.97, 8.94, 2.26, 1.54, 7.27, repro,
2011-07-01,-1.40, -0.17, 2.59, 2.30, 1.57, 7.42, repro,
2011-07-02,-2.77, 0.45, 6.08, 2.28, 1.57, 7.38, repro,
2011-07-03,-2.00, 0.82, -2.73, 2.27, 1.57, 7.40, repro,
2011-07-04,-1.53, -0.16, -2.21, 2.24, 1.54, 7.22, repro,
2011-07-05,-2.15, 0.67, -8.05, 2.27, 1.55, 7.41, repro,
2011-07-06,-2.44, 0.72, -3.92, 2.29, 1.58, 7.51, repro,
2011-07-07,-1.20, -0.22, -8.99, 2.28, 1.58, 7.51, repro,
2011-07-08,-2.24, -0.09, -1.82, 2.29, 1.59, 7.57, repro,
2011-07-09,-1.72, 0.23, -4.78, 2.28, 1.56, 7.50, repro,
2011-07-10,-1.87, 1.55, -5.70, 2.25, 1.56, 7.38, repro,
2011-07-11,-2.72, 0.62, -11.73, 2.33, 1.59, 7.59, repro,
2011-07-12,-2.41, 1.26, -11.33, 2.29, 1.56, 7.52, repro,
2011-07-13,-2.16, 0.69, -3.29, 2.28, 1.59, 7.55, repro,
2011-07-14,-4.14, 0.38, 4.63, 2.30, 1.59, 7.59, repro,
2011-07-15,-4.06, 2.06, 3.72, 2.27, 1.57, 7.47, repro,
2011-07-16,-4.63, 1.04, -4.91, 2.33, 1.60, 7.55, repro,
2011-07-17,-4.16, 0.62, -1.49, 2.30, 1.57, 7.52, repro,
2011-07-18,-3.28, 1.59, -0.48, 2.30, 1.57, 7.51, repro,
2011-07-19,-5.71, 0.26, 1.31, 2.29, 1.59, 7.55, repro,
2011-07-20,-4.36, 1.85, 4.57, 2.27, 1.56, 7.45, repro,
2011-07-21,-4.56, 0.91, 0.23, 2.27, 1.56, 7.41, repro,
2011-07-22,-3.29, 1.23, -5.18, 2.28, 1.57, 7.47, repro,
2011-07-23,-2.91, 2.13, -1.59, 2.29, 1.57, 7.54, repro,
2011-07-24,-2.68, 2.32, -5.26, 2.27, 1.56, 7.43, repro,
2011-07-25,-2.72, 1.63, 1.36, 2.28, 1.58, 7.52, repro,
2011-07-26,-3.95, 1.72, -1.43, 2.33, 1.59, 7.59, repro,
2011-07-27,-2.66, 1.69, 5.23, 2.27, 1.57, 7.47, repro,
2011-07-28,-2.80, 2.08, -3.03, 2.31, 1.58, 7.57, repro,
2011-07-29,-3.23, 1.76, -5.13, 2.28, 1.57, 7.50, repro,
2011-07-30,-4.99, 2.81, -2.41, 2.26, 1.57, 7.43, repro,
2011-07-31,-2.45, 1.01, 2.76, 2.26, 1.56, 7.45, repro,
2011-08-01,-2.27, 1.60, -3.18, 2.26, 1.56, 7.41, repro,
2011-08-02,-1.81, 2.85, 3.18, 2.28, 1.57, 7.49, repro,
2011-08-03,-3.47, 2.29, 0.68, 2.35, 1.61, 7.73, repro,
2011-08-04,-3.14, 0.92, -5.67, 2.27, 1.56, 7.46, repro,
2011-08-05,-3.28, 1.21, 4.43, 2.29, 1.59, 7.51, repro,
2011-08-06,-3.74, 0.67, 0.59, 2.38, 1.65, 7.84, repro,
2011-08-07,-2.01, 1.54, -5.05, 2.29, 1.57, 7.53, repro,
2011-08-08,-2.00, 1.09, -2.50, 2.26, 1.56, 7.46, repro,
2011-08-09,-3.06, 0.06, -12.14, 2.32, 1.60, 7.59, repro,
2011-08-10,-4.31, 1.06, -4.69, 2.33, 1.58, 7.64, repro,
2011-08-11,-3.58, 2.28, -1.19, 2.38, 1.65, 7.79, repro,
2011-08-12,-2.31, 0.12, -7.44, 2.39, 1.64, 7.75, repro,
2011-08-13,-2.67, 1.18, 0.08, 2.33, 1.59, 7.68, repro,
2011-08-14,-2.21, 2.07, -3.89, 2.33, 1.59, 7.70, repro,
2011-08-15,-2.26, 2.43, -0.02, 2.32, 1.58, 7.63, repro,
2011-08-16,-4.49, 1.63, 0.46, 2.33, 1.60, 7.68, repro,
2011-08-17,-3.47, 1.59, -3.85, 2.29, 1.59, 7.61, repro,
2011-08-18,-2.23, 1.51, 3.57, 2.31, 1.57, 7.63, repro,
2011-08-19,-3.16, 2.07, 2.38, 2.31, 1.57, 7.62, repro,
2011-08-20,-3.43, 1.31, 5.31, 2.29, 1.57, 7.54, repro,
2011-08-21,-3.12, 1.83, 10.93, 2.28, 1.58, 7.53, repro,
2011-08-22,-2.54, 1.85, 10.08, 2.29, 1.60, 7.63, repro,
2011-08-23,-3.94, 1.63, 7.34, 2.44, 1.64, 8.00, repro,
2011-08-24,-4.11, 2.83, 0.65, 2.31, 1.58, 7.64, repro,
2011-08-25,-3.74, 2.40, -0.06, 2.27, 1.56, 7.54, repro,
2011-08-26,-2.58, 1.80, 3.32, 2.34, 1.60, 7.77, repro,
2011-08-27,-1.34, 0.69, -1.85, 2.32, 1.59, 7.61, repro,
2011-08-28,-3.02, 0.80, -1.75, 2.32, 1.61, 7.68, repro,
2011-08-29,-3.60, 2.13, 1.77, 2.34, 1.60, 7.72, repro,
2011-08-30,-2.36, 2.34, 4.94, 2.39, 1.64, 7.88, repro,
2011-08-31,-1.99, 1.20, -0.44, 2.36, 1.63, 7.67, repro,
2011-09-01,-3.94, 0.93, 0.19, 2.28, 1.57, 7.65, repro,
2011-09-02,-2.59, 1.39, -2.14, 2.30, 1.60, 7.79, repro,
2011-09-03,-4.42, 1.48, -0.98, 2.31, 1.58, 7.58, repro,
2011-09-04,-1.57, 2.22, 2.59, 2.31, 1.57, 7.60, repro,
2011-09-05,-1.23, 1.24, 11.41, 2.29, 1.56, 7.58, repro,
2011-09-06,-3.41, 1.84, 13.31, 2.31, 1.57, 7.57, repro,
2011-09-07,-4.49, 1.86, 2.62, 2.31, 1.59, 7.61, repro,
2011-09-08,-3.67, 0.17, -1.28, 2.32, 1.59, 7.63, repro,
2011-09-09,-2.43, 0.18, -1.80, 2.39, 1.66, 7.86, repro,
2011-09-10,0.62, 1.30, -1.73, 2.43, 1.63, 8.01, repro,
2011-09-11,-2.39, 1.02, -6.05, 2.32, 1.58, 7.59, repro,
2011-09-12,-2.94, 2.65, -8.12, 2.37, 1.62, 7.80, repro,
2011-09-13,-3.65, 1.81, 2.05, 2.33, 1.60, 7.69, repro,
2011-09-14,-3.52, 0.13, 1.87, 2.30, 1.57, 7.56, repro,
2011-09-15,-3.51, 1.25, 5.28, 2.29, 1.57, 7.53, repro,
2011-09-16,-3.35, 0.10, 4.18, 2.35, 1.59, 7.61, repro,
2011-09-17,-3.16, 0.66, 2.35, 2.57, 1.78, 8.66, repro,
2011-09-18,-3.69, 2.18, 5.03, 2.29, 1.57, 7.54, repro,
2011-09-19,-3.21, 0.68, 4.85, 2.33, 1.60, 7.68, repro,
2011-09-20,-4.46, 0.80, 16.88, 2.34, 1.60, 7.62, repro,
2011-09-21,-4.34, 1.68, 17.94, 2.30, 1.56, 7.52, repro,
2011-09-22,-4.01, 0.70, 11.96, 2.31, 1.55, 7.54, repro,
2011-09-23,-2.26, -0.60, 9.38, 2.30, 1.58, 7.63, repro,
2011-09-24,-2.07, 1.11, 10.41, 2.29, 1.58, 7.56, repro,
2011-09-25,-2.33, 1.07, 5.94, 2.29, 1.56, 7.51, repro,
2011-09-26,-3.83, 0.18, 8.92, 2.39, 1.67, 7.87, repro,
2011-09-27,-2.39, 2.69, 8.01, 2.30, 1.57, 7.56, repro,
2011-09-28,-1.76, 2.46, -7.57, 2.42, 1.64, 7.87, repro,